Orange, MA

8:16 AM EDT on June 25, 2017 (GMT -0400)
Orange Municipal

Weather History for KORE - March, 2012

Change the Weather History Date:

Wednesday, March 28, 2012

  Actual Average Record
Temperature  
Mean Temperature 41 °F -  
Max Temperature 50 °F 45 °F 81 °F (1998)
Min Temperature 32 °F 26 °F 18 °F (2001)
Degree Days  
Heating Degree Days 24    
Moisture  
Dew Point 29 °F    
Average Humidity 65    
Maximum Humidity 97    
Minimum Humidity 38    
Precipitation  
Precipitation 0.06 in - - ()
Sea Level Pressure  
Sea Level Pressure 29.80 in    
Wind  
Wind Speed 2 mph (South)    
Max Wind Speed 12 mph    
Max Gust Speed 18 mph    
Visibility 10 miles    
Events Rain    
Averages and records for this station are not official NWS values.
T = Trace of Precipitation, MM = Missing Value Source: NWS Daily Summary

Daily Weather History Graph

Daily Weather History Graph

Search for Another Location

Airport or City:

Trip Planner

Search our weather history database for the weather conditions in past years. The results will help you decide how hot, cold, wet, or windy it might be!

Date:

Astronomy

Mar. 28, 2012 Rise Set
Actual Time 6:37 AM EDT 7:11 PM EDT
Civil Twilight 6:09 AM EDT 7:39 PM EDT
Nautical Twilight 5:35 AM EDT 8:13 PM EDT
Astronomical Twilight 5:01 AM EDT 8:47 PM EDT
Moon 9:45 AM EDT (3/28) 12:17 AM EDT (3/28)
Length of Visible Light 13h 30m
Length of Day
12h 33m
Waxing Crescent, 30% of the Moon is Illuminated
Mar 28
Waxing Crescent
Mar 30
First Quarter
Apr 6
Full
Apr 13
Last Quarter
Apr 21
New

Hourly Weather History & Observations

Time (EDT) Temp. Windchill Dew Point Humidity Pressure Visibility Wind Dir Wind Speed Gust Speed Precip Events Conditions
12:52 AM 32.0 °F - 10.9 °F 42% 30.15 in 10.0 mi Calm Calm - N/A   Overcast
1:52 AM 32.0 °F - 14.0 °F 48% 30.09 in 10.0 mi Calm Calm - N/A   Overcast
2:52 AM 32.0 °F - 14.0 °F 48% 30.06 in 10.0 mi Calm Calm - N/A   Overcast
3:52 AM 33.1 °F - 14.0 °F 46% 30.07 in 10.0 mi Calm Calm - N/A   Overcast
4:52 AM 34.0 °F - 14.0 °F 44% 30.06 in 10.0 mi Calm Calm - N/A   Overcast
5:52 AM 34.0 °F - 15.1 °F 46% 30.04 in 10.0 mi Calm Calm - N/A   Overcast
6:52 AM 34.0 °F - 16.0 °F 48% 29.99 in 10.0 mi Calm Calm - N/A   Overcast
7:52 AM 36.0 °F - 17.1 °F 46% 29.96 in 10.0 mi Calm Calm - N/A   Overcast
8:52 AM 39.0 °F - 15.1 °F 38% 29.92 in 10.0 mi Calm Calm - 0.00 in   Overcast
9:52 AM 41.0 °F 39.0 °F 17.1 °F 38% 29.88 in 10.0 mi South 3.5 mph - 0.00 in Rain Light Rain
10:52 AM 41.0 °F - 30.0 °F 65% 29.82 in 10.0 mi Calm Calm - 0.01 in Rain Light Rain
11:52 AM 42.1 °F 37.1 °F 35.1 °F 76% 29.78 in 10.0 mi SE 8.1 mph - 0.04 in   Partly Cloudy
12:52 PM 42.1 °F - 35.1 °F 76% 29.76 in 10.0 mi Calm Calm - 0.01 in Rain Light Rain
1:52 PM 44.1 °F 39.5 °F 37.0 °F 76% 29.72 in 10.0 mi South 8.1 mph - 0.00 in   Overcast
2:52 PM 46.0 °F 40.6 °F 37.0 °F 71% 29.65 in 10.0 mi South 11.5 mph 18.4 mph N/A   Mostly Cloudy
3:52 PM 48.9 °F - 39.9 °F 71% 29.62 in 10.0 mi SSE 5.8 mph - N/A   Mostly Cloudy
4:52 PM 50.0 °F - 39.9 °F 68% 29.58 in 10.0 mi South 9.2 mph - N/A   Scattered Clouds
5:52 PM 48.9 °F - 39.9 °F 71% 29.57 in 10.0 mi South 5.8 mph - N/A   Overcast
6:52 PM 48.9 °F - 41.0 °F 74% 29.58 in 10.0 mi South 3.5 mph - N/A   Mostly Cloudy
7:52 PM 45.0 °F - 41.0 °F 86% 29.58 in 10.0 mi Calm Calm - N/A   Mostly Cloudy
8:52 PM 44.1 °F - 41.0 °F 89% 29.58 in 10.0 mi Calm Calm - N/A   Overcast
9:52 PM 44.1 °F - 41.0 °F 89% 29.58 in 10.0 mi Calm Calm - N/A   Overcast
10:52 PM 44.1 °F - 43.0 °F 96% 29.57 in 10.0 mi Calm Calm - 0.00 in Rain Light Rain
11:52 PM 43.0 °F 41.3 °F 42.1 °F 97% 29.56 in 8.0 mi WSW 3.5 mph - 0.00 in   Overcast